Time,TemperatureF,DewpointF,PressureIn,WindDirection,WindDirectionDegrees,WindSpeedMPH,WindSpeedGustMPH,Humidity,HourlyPrecipIn,Conditions,Clouds,dailyrainin,SoftwareType,DateUTC
2013-05-12 00:01:00,57.7,54.3,29.72,SW,234,0.0,6.0,98,0.00,,,0.30,meteohub,2013-05-12 04:01:00,
2013-05-12 00:06:00,58.1,54.3,29.72,NE,54,0.0,5.0,98,0.00,,,0.00,meteohub,2013-05-12 04:06:00,
2013-05-12 00:11:00,58.1,54.3,29.72,SW,228,2.0,4.0,98,0.00,,,0.00,meteohub,2013-05-12 04:11:00,
2013-05-12 00:16:00,58.5,54.1,29.72,SW,230,4.0,5.0,98,0.00,,,0.00,meteohub,2013-05-12 04:16:00,
2013-05-12 00:21:00,58.6,54.1,29.72,SW,228,4.0,7.0,98,0.00,,,0.00,meteohub,2013-05-12 04:21:00,
2013-05-12 00:26:00,58.6,54.1,29.72,SW,214,6.0,8.0,98,0.00,,,0.00,meteohub,2013-05-12 04:26:00,
2013-05-12 00:31:00,57.9,54.1,29.72,SSW,212,7.0,8.0,98,0.00,,,0.00,meteohub,2013-05-12 04:31:00,
2013-05-12 00:36:00,57.7,54.1,29.72,SSW,209,6.0,9.0,98,0.00,,,0.00,meteohub,2013-05-12 04:36:00,
2013-05-12 00:41:00,57.7,54.1,29.71,SW,228,5.0,9.0,98,0.00,,,0.00,meteohub,2013-05-12 04:41:00,
2013-05-12 00:46:00,58.3,54.1,29.71,SW,221,6.0,9.0,98,0.00,,,0.00,meteohub,2013-05-12 04:46:00,
2013-05-12 00:51:00,58.3,54.1,29.71,SW,223,6.0,8.0,98,0.00,,,0.00,meteohub,2013-05-12 04:51:00,
2013-05-12 00:56:00,58.5,54.0,29.71,SW,221,6.0,8.0,98,0.00,,,0.00,meteohub,2013-05-12 04:56:00,
2013-05-12 01:01:00,57.7,54.0,29.71,SW,220,5.0,8.0,98,0.00,,,0.00,meteohub,2013-05-12 05:01:00,
2013-05-12 01:06:00,57.6,54.0,29.71,SW,218,5.0,7.0,98,0.00,,,0.00,meteohub,2013-05-12 05:06:00,
2013-05-12 01:11:00,57.7,54.0,29.70,SW,217,4.0,7.0,98,0.00,,,0.00,meteohub,2013-05-12 05:11:00,
2013-05-12 01:16:00,58.1,54.0,29.71,NE,54,5.0,7.0,98,0.00,,,0.00,meteohub,2013-05-12 05:16:00,
2013-05-12 01:21:00,57.7,54.0,29.70,SW,217,5.0,7.0,98,0.00,,,0.00,meteohub,2013-05-12 05:21:00,
2013-05-12 01:26:00,57.7,54.0,29.70,SW,219,4.0,7.0,98,0.00,,,0.00,meteohub,2013-05-12 05:26:00,
2013-05-12 01:31:00,58.5,54.0,29.71,SW,233,8.0,8.0,98,0.00,,,0.00,meteohub,2013-05-12 05:31:00,
2013-05-12 01:36:00,58.6,53.8,29.70,WSW,248,5.0,10.0,99,0.00,,,0.00,meteohub,2013-05-12 05:36:00,
2013-05-12 01:41:00,58.8,53.8,29.70,WSW,255,7.0,10.0,99,0.00,,,0.00,meteohub,2013-05-12 05:41:00,
2013-05-12 01:46:00,58.8,53.8,29.70,NE,54,2.0,10.0,98,0.00,,,0.00,meteohub,2013-05-12 05:46:00,
2013-05-12 01:51:00,58.8,53.8,29.70,WSW,252,1.0,8.0,98,0.00,,,0.00,meteohub,2013-05-12 05:51:00,
2013-05-12 01:56:00,58.6,53.8,29.70,NE,54,3.0,7.0,99,0.00,,,0.00,meteohub,2013-05-12 05:56:00,
2013-05-12 02:01:00,58.5,53.8,29.70,WSW,253,2.0,4.0,98,0.00,,,0.00,meteohub,2013-05-12 06:01:00,
2013-05-12 02:07:00,57.7,53.8,29.69,NE,54,2.0,4.0,98,0.00,,,0.00,meteohub,2013-05-12 06:07:00,
2013-05-12 02:12:00,56.8,53.8,29.69,NE,54,2.0,4.0,98,0.00,,,0.00,meteohub,2013-05-12 06:12:00,
2013-05-12 02:17:00,56.1,53.8,29.69,WSW,254,3.0,4.0,98,0.00,,,0.00,meteohub,2013-05-12 06:17:00,
2013-05-12 02:22:00,55.8,53.8,29.69,WSW,250,3.0,4.0,98,0.00,,,0.00,meteohub,2013-05-12 06:22:00,
2013-05-12 02:27:00,55.6,53.8,29.69,WSW,254,1.0,4.0,98,0.00,,,0.00,meteohub,2013-05-12 06:27:00,
2013-05-12 02:32:00,55.6,53.8,29.69,WSW,250,0.0,4.0,98,0.00,,,0.00,meteohub,2013-05-12 06:32:00,
2013-05-12 02:37:00,55.6,53.8,29.68,WSW,252,2.0,4.0,98,0.00,,,0.00,meteohub,2013-05-12 06:37:00,
2013-05-12 02:42:00,55.2,53.8,29.68,NE,54,3.0,3.0,98,0.00,,,0.00,meteohub,2013-05-12 06:42:00,
2013-05-12 02:47:00,55.2,53.8,29.68,NE,54,2.0,4.0,98,0.00,,,0.00,meteohub,2013-05-12 06:47:00,
2013-05-12 02:52:00,54.3,53.8,29.68,WSW,256,0.0,5.0,98,0.00,,,0.00,meteohub,2013-05-12 06:52:00,
2013-05-12 02:57:00,54.0,53.8,29.68,WSW,255,0.0,5.0,98,0.00,,,0.00,meteohub,2013-05-12 06:57:00,
2013-05-12 03:02:00,54.0,53.8,29.68,WSW,252,2.0,5.0,98,0.00,,,0.00,meteohub,2013-05-12 07:02:00,
2013-05-12 03:06:00,54.0,53.8,29.67,NE,54,4.0,5.0,98,0.00,,,0.00,meteohub,2013-05-12 07:06:00,
2013-05-12 03:12:00,53.8,53.6,29.67,SSW,213,0.0,5.0,99,0.00,,,0.00,meteohub,2013-05-12 07:12:00,
2013-05-12 03:17:00,53.6,53.6,29.67,NE,54,0.0,5.0,99,0.00,,,0.00,meteohub,2013-05-12 07:17:00,
2013-05-12 03:22:00,53.6,53.6,29.68,SSW,213,0.0,5.0,99,0.00,,,0.00,meteohub,2013-05-12 07:22:00,
2013-05-12 03:27:00,54.0,53.6,29.68,SW,215,0.0,2.0,99,0.00,,,0.00,meteohub,2013-05-12 07:27:00,
2013-05-12 03:32:00,54.1,53.6,29.68,SW,218,3.0,3.0,99,0.00,,,0.00,meteohub,2013-05-12 07:32:00,
2013-05-12 03:37:00,55.0,53.6,29.67,NE,54,4.0,6.0,99,0.00,,,0.00,meteohub,2013-05-12 07:37:00,
2013-05-12 03:42:00,55.8,53.4,29.68,NE,54,2.0,6.0,99,0.00,,,0.00,meteohub,2013-05-12 07:42:00,
2013-05-12 03:47:00,55.0,53.4,29.68,South,184,0.0,6.0,99,0.00,,,0.00,meteohub,2013-05-12 07:47:00,
2013-05-12 03:52:00,54.7,53.1,29.69,South,184,0.0,5.0,99,0.00,,,0.00,meteohub,2013-05-12 07:52:00,
2013-05-12 03:57:00,55.2,53.1,29.69,NE,54,5.0,5.0,99,0.00,,,0.00,meteohub,2013-05-12 07:57:00,
2013-05-12 04:02:00,55.4,53.1,29.69,South,186,0.0,6.0,99,0.00,,,0.00,meteohub,2013-05-12 08:02:00,
2013-05-12 04:07:00,55.2,53.1,29.69,South,183,0.0,6.0,99,0.00,,,0.00,meteohub,2013-05-12 08:07:00,
2013-05-12 04:12:00,55.2,52.9,29.70,South,182,2.0,6.0,99,0.00,,,0.00,meteohub,2013-05-12 08:12:00,
2013-05-12 04:17:00,55.2,52.9,29.69,South,184,0.0,5.0,99,0.00,,,0.00,meteohub,2013-05-12 08:17:00,
2013-05-12 04:22:00,55.6,52.9,29.68,South,184,0.0,3.0,99,0.00,,,0.00,meteohub,2013-05-12 08:22:00,
2013-05-12 04:27:00,55.6,52.9,29.68,South,185,0.0,3.0,99,0.00,,,0.00,meteohub,2013-05-12 08:27:00,
2013-05-12 04:31:00,55.8,52.9,29.68,South,184,0.0,1.0,99,0.00,,,0.00,meteohub,2013-05-12 08:31:00,
2013-05-12 04:36:00,55.8,52.9,29.68,South,182,0.0,0.0,99,0.00,,,0.00,meteohub,2013-05-12 08:36:00,
2013-05-12 04:41:00,55.8,52.9,29.68,South,184,1.0,0.0,99,0.00,,,0.00,meteohub,2013-05-12 08:41:00,
2013-05-12 04:46:00,55.6,52.9,29.68,NE,54,4.0,4.0,99,0.00,,,0.00,meteohub,2013-05-12 08:46:00,
2013-05-12 04:51:00,55.0,52.7,29.68,South,182,3.0,5.0,99,0.00,,,0.00,meteohub,2013-05-12 08:51:00,
2013-05-12 04:56:00,55.0,52.7,29.68,South,186,4.0,6.0,99,0.00,,,0.00,meteohub,2013-05-12 08:56:00,
2013-05-12 05:01:00,54.9,52.7,29.68,South,184,7.0,7.0,99,0.00,,,0.00,meteohub,2013-05-12 09:01:00,
2013-05-12 05:06:00,54.9,52.7,29.68,SSW,195,5.0,7.0,99,0.00,,,0.00,meteohub,2013-05-12 09:06:00,
2013-05-12 05:12:00,55.2,52.7,29.68,SSW,195,3.0,7.0,99,0.00,,,0.00,meteohub,2013-05-12 09:12:00,
2013-05-12 05:17:00,55.8,52.7,29.68,SSW,198,3.0,7.0,99,0.00,,,0.00,meteohub,2013-05-12 09:17:00,
2013-05-12 05:22:00,55.9,52.5,29.68,NE,54,2.0,7.0,99,0.00,,,0.00,meteohub,2013-05-12 09:22:00,
2013-05-12 05:27:00,55.4,52.5,29.69,NE,54,5.0,5.0,99,0.00,,,0.00,meteohub,2013-05-12 09:27:00,
2013-05-12 05:32:00,55.2,52.5,29.68,SSW,200,6.0,6.0,99,0.00,,,0.00,meteohub,2013-05-12 09:32:00,
2013-05-12 05:37:00,54.9,52.5,29.68,SSW,198,4.0,7.0,99,0.00,,,0.00,meteohub,2013-05-12 09:37:00,
2013-05-12 05:42:00,54.9,52.5,29.68,South,191,5.0,7.0,99,0.00,,,0.00,meteohub,2013-05-12 09:42:00,
2013-05-12 05:47:00,55.0,52.5,29.68,South,188,5.0,7.0,99,0.00,,,0.00,meteohub,2013-05-12 09:47:00,
2013-05-12 05:52:00,55.0,52.5,29.68,South,181,4.0,6.0,99,0.00,,,0.00,meteohub,2013-05-12 09:52:00,
2013-05-12 05:57:00,55.2,52.3,29.68,South,181,0.0,6.0,99,0.00,,,0.00,meteohub,2013-05-12 09:57:00,
2013-05-12 06:02:00,55.0,52.3,29.68,South,183,0.0,6.0,99,0.00,,,0.00,meteohub,2013-05-12 10:02:00,
2013-05-12 06:07:00,54.9,52.3,29.68,South,182,0.0,6.0,99,0.00,,,0.00,meteohub,2013-05-12 10:07:00,
2013-05-12 06:12:00,55.0,52.3,29.68,South,183,1.0,3.0,99,0.00,,,0.00,meteohub,2013-05-12 10:12:00,
2013-05-12 06:17:00,55.0,52.3,29.68,South,184,3.0,3.0,99,0.00,,,0.00,meteohub,2013-05-12 10:17:00,
2013-05-12 06:22:00,54.9,52.3,29.68,NE,54,4.0,6.0,99,0.00,,,0.00,meteohub,2013-05-12 10:22:00,
2013-05-12 06:27:00,55.2,52.3,29.67,South,184,2.0,7.0,99,0.00,,,0.00,meteohub,2013-05-12 10:27:00,
2013-05-12 06:32:00,55.2,52.3,29.68,South,183,6.0,7.0,99,0.00,,,0.00,meteohub,2013-05-12 10:32:00,
2013-05-12 06:37:00,55.0,52.3,29.69,South,190,5.0,7.0,99,0.00,,,0.00,meteohub,2013-05-12 10:37:00,
2013-05-12 06:42:00,55.2,52.3,29.69,NE,54,6.0,7.0,99,0.00,,,0.00,meteohub,2013-05-12 10:42:00,
2013-05-12 06:47:00,55.9,52.2,29.69,SSW,211,6.0,8.0,99,0.00,,,0.00,meteohub,2013-05-12 10:47:00,
2013-05-12 06:52:00,55.9,52.2,29.69,SSW,208,5.0,8.0,99,0.00,,,0.00,meteohub,2013-05-12 10:52:00,
2013-05-12 06:57:00,55.8,52.2,29.69,SSW,211,3.0,8.0,99,0.00,,,0.00,meteohub,2013-05-12 10:57:00,
2013-05-12 07:02:00,55.9,52.2,29.69,SSW,211,4.0,8.0,99,0.00,,,0.00,meteohub,2013-05-12 11:02:00,
2013-05-12 07:07:00,57.4,52.2,29.69,SW,214,7.0,8.0,100,0.00,,,0.00,meteohub,2013-05-12 11:07:00,
2013-05-12 07:12:00,57.9,52.2,29.69,NE,54,6.0,9.0,99,0.01,,,0.01,meteohub,2013-05-12 11:12:00,
2013-05-12 07:17:00,58.1,52.2,29.69,NE,54,9.0,10.0,99,0.01,,,0.01,meteohub,2013-05-12 11:17:00,
2013-05-12 07:22:00,58.3,52.2,29.68,SW,234,6.0,11.0,100,0.01,,,0.01,meteohub,2013-05-12 11:22:00,
2013-05-12 07:27:00,58.5,52.2,29.69,SW,231,6.0,11.0,100,0.01,,,0.01,meteohub,2013-05-12 11:27:00,
2013-05-12 07:32:00,58.5,52.2,29.69,WSW,240,6.0,11.0,99,0.01,,,0.01,meteohub,2013-05-12 11:32:00,
2013-05-12 07:37:00,58.6,52.2,29.69,SW,233,5.0,10.0,99,0.01,,,0.01,meteohub,2013-05-12 11:37:00,
2013-05-12 07:42:00,58.6,52.3,29.68,SW,234,5.0,12.0,99,0.01,,,0.01,meteohub,2013-05-12 11:42:00,
2013-05-12 07:47:00,58.8,52.3,29.68,SW,236,3.0,12.0,100,0.01,,,0.01,meteohub,2013-05-12 11:47:00,
2013-05-12 07:52:00,59.0,52.3,29.68,WSW,254,7.0,9.0,100,0.01,,,0.01,meteohub,2013-05-12 11:52:00,
2013-05-12 07:57:00,59.2,52.3,29.68,WSW,237,5.0,9.0,99,0.01,,,0.01,meteohub,2013-05-12 11:57:00,
2013-05-12 08:02:00,59.2,52.3,29.67,NE,54,3.0,10.0,99,0.01,,,0.01,meteohub,2013-05-12 12:02:00,
2013-05-12 08:07:00,59.4,52.9,29.67,SW,232,9.0,13.0,99,0.01,,,0.01,meteohub,2013-05-12 12:07:00,
2013-05-12 08:12:00,59.4,52.5,29.68,NE,54,9.0,13.0,99,0.00,,,0.01,meteohub,2013-05-12 12:12:00,
2013-05-12 08:17:00,59.4,52.5,29.68,West,265,8.0,15.0,98,0.00,,,0.01,meteohub,2013-05-12 12:17:00,
2013-05-12 08:22:00,59.4,52.5,29.69,West,265,11.0,15.0,98,0.00,,,0.01,meteohub,2013-05-12 12:22:00,
2013-05-12 08:27:00,59.4,52.5,29.69,West,260,9.0,15.0,96,0.00,,,0.01,meteohub,2013-05-12 12:27:00,
2013-05-12 08:32:00,59.2,52.5,29.69,WSW,254,11.0,22.0,95,0.00,,,0.01,meteohub,2013-05-12 12:32:00,
2013-05-12 08:37:00,59.0,52.9,29.69,WSW,249,16.0,22.0,94,0.00,,,0.01,meteohub,2013-05-12 12:37:00,
2013-05-12 08:42:00,58.5,52.9,29.70,WSW,254,11.0,21.0,93,0.00,,,0.01,meteohub,2013-05-12 12:42:00,
2013-05-12 08:47:00,58.3,53.1,29.69,WSW,251,10.0,21.0,93,0.00,,,0.01,meteohub,2013-05-12 12:47:00,
2013-05-12 08:52:00,57.9,53.1,29.69,WSW,254,8.0,21.0,94,0.00,,,0.01,meteohub,2013-05-12 12:52:00,
2013-05-12 08:57:00,57.9,53.1,29.68,NE,54,10.0,19.0,94,0.00,,,0.01,meteohub,2013-05-12 12:57:00,
2013-05-12 09:02:00,57.9,53.1,29.68,West,261,8.0,18.0,94,0.00,,,0.01,meteohub,2013-05-12 13:02:00,
2013-05-12 09:07:00,58.1,53.1,29.68,West,267,6.0,18.0,94,0.00,,,0.01,meteohub,2013-05-12 13:07:00,
2013-05-12 09:12:00,58.3,53.1,29.68,NE,54,5.0,14.0,93,0.00,,,0.01,meteohub,2013-05-12 13:12:00,
2013-05-12 09:17:00,58.3,53.2,29.67,West,274,6.0,14.0,94,0.00,,,0.01,meteohub,2013-05-12 13:17:00,
2013-05-12 09:22:00,58.5,53.2,29.66,West,261,6.0,12.0,93,0.00,,,0.01,meteohub,2013-05-12 13:22:00,
2013-05-12 09:27:00,58.6,53.4,29.66,West,263,7.0,12.0,93,0.00,,,0.01,meteohub,2013-05-12 13:27:00,
2013-05-12 09:32:00,58.8,53.2,29.66,West,262,9.0,9.0,93,0.00,,,0.01,meteohub,2013-05-12 13:32:00,
2013-05-12 09:37:00,58.8,53.2,29.66,West,259,7.0,14.0,92,0.00,,,0.01,meteohub,2013-05-12 13:37:00,
2013-05-12 09:42:00,59.0,53.2,29.66,SW,235,10.0,14.0,92,0.00,,,0.01,meteohub,2013-05-12 13:42:00,
2013-05-12 09:47:00,58.8,53.4,29.67,West,260,12.0,14.0,92,0.00,,,0.01,meteohub,2013-05-12 13:47:00,
2013-05-12 09:52:00,59.2,53.6,29.67,West,265,13.0,16.0,92,0.00,,,0.01,meteohub,2013-05-12 13:52:00,
2013-05-12 09:57:00,59.5,54.0,29.67,West,275,11.0,20.0,92,0.00,,,0.01,meteohub,2013-05-12 13:57:00,
2013-05-12 10:02:00,59.5,53.8,29.68,WSW,252,11.0,20.0,91,0.00,,,0.01,meteohub,2013-05-12 14:02:00,
2013-05-12 10:07:00,59.2,54.0,29.67,West,281,7.0,23.0,91,0.00,,,0.01,meteohub,2013-05-12 14:07:00,
2013-05-12 10:12:00,59.0,54.0,29.68,West,267,19.0,23.0,89,0.00,,,0.01,meteohub,2013-05-12 14:12:00,
2013-05-12 10:17:00,58.8,54.3,29.68,West,259,14.0,23.0,86,0.00,,,0.01,meteohub,2013-05-12 14:17:00,
2013-05-12 10:22:00,59.4,54.5,29.68,West,263,15.0,25.0,82,0.00,,,0.01,meteohub,2013-05-12 14:22:00,
2013-05-12 10:27:00,59.2,54.7,29.67,WSW,252,17.0,25.0,82,0.00,,,0.01,meteohub,2013-05-12 14:27:00,
2013-05-12 10:32:00,58.8,54.7,29.67,West,259,10.0,25.0,81,0.00,,,0.01,meteohub,2013-05-12 14:32:00,
2013-05-12 10:37:00,59.0,54.3,29.67,WSW,255,12.0,26.0,81,0.00,,,0.01,meteohub,2013-05-12 14:37:00,
2013-05-12 10:42:00,59.4,54.5,29.67,WSW,254,19.0,26.0,80,0.00,,,0.01,meteohub,2013-05-12 14:42:00,
2013-05-12 10:47:00,59.5,54.7,29.67,WSW,258,17.0,24.0,81,0.00,,,0.01,meteohub,2013-05-12 14:47:00,
2013-05-12 10:52:00,59.7,54.9,29.67,SW,221,14.0,24.0,82,0.00,,,0.01,meteohub,2013-05-12 14:52:00,
2013-05-12 10:57:00,59.5,54.9,29.67,WSW,252,11.0,24.0,82,0.00,,,0.01,meteohub,2013-05-12 14:57:00,
2013-05-12 11:02:00,59.7,55.0,29.67,WSW,243,13.0,21.0,83,0.00,,,0.01,meteohub,2013-05-12 15:02:00,
2013-05-12 11:07:00,60.1,55.2,29.67,West,267,11.0,21.0,82,0.00,,,0.01,meteohub,2013-05-12 15:07:00,
2013-05-12 11:12:00,59.9,55.2,29.68,WSW,253,14.0,21.0,81,0.00,,,0.01,meteohub,2013-05-12 15:12:00,
2013-05-12 11:17:00,60.4,55.4,29.68,West,265,7.0,22.0,81,0.00,,,0.01,meteohub,2013-05-12 15:17:00,
2013-05-12 11:22:00,60.4,55.6,29.68,SW,231,16.0,22.0,81,0.00,,,0.01,meteohub,2013-05-12 15:22:00,
2013-05-12 11:27:00,60.4,55.6,29.68,WSW,250,11.0,22.0,81,0.00,,,0.01,meteohub,2013-05-12 15:27:00,
2013-05-12 11:32:00,61.0,55.8,29.68,West,262,9.0,18.0,81,0.00,,,0.01,meteohub,2013-05-12 15:32:00,
2013-05-12 11:37:00,61.0,55.8,29.68,WSW,239,11.0,18.0,80,0.00,,,0.01,meteohub,2013-05-12 15:37:00,
2013-05-12 11:42:00,61.0,55.9,29.68,SW,223,15.0,18.0,80,0.00,,,0.01,meteohub,2013-05-12 15:42:00,
2013-05-12 11:47:00,61.5,55.9,29.67,West,272,8.0,18.0,79,0.00,,,0.01,meteohub,2013-05-12 15:47:00,
2013-05-12 11:52:00,60.6,55.6,29.67,WSW,258,11.0,17.0,79,0.00,,,0.01,meteohub,2013-05-12 15:52:00,
2013-05-12 11:57:00,60.4,55.6,29.67,WSW,257,10.0,17.0,80,0.00,,,0.01,meteohub,2013-05-12 15:57:00,
2013-05-12 12:02:00,59.9,55.6,29.68,West,264,12.0,17.0,81,0.00,,,0.01,meteohub,2013-05-12 16:02:00,
2013-05-12 12:07:00,60.3,55.6,29.67,West,264,13.0,17.0,81,0.00,,,0.01,meteohub,2013-05-12 16:07:00,
2013-05-12 12:12:00,60.6,55.6,29.67,WSW,257,8.0,17.0,80,0.00,,,0.01,meteohub,2013-05-12 16:12:00,
2013-05-12 12:17:00,61.0,55.9,29.67,West,265,9.0,18.0,81,0.00,,,0.01,meteohub,2013-05-12 16:17:00,
2013-05-12 12:22:00,61.3,55.9,29.67,WSW,256,11.0,18.0,79,0.00,,,0.01,meteohub,2013-05-12 16:22:00,
2013-05-12 12:27:00,61.3,56.1,29.68,West,269,12.0,18.0,77,0.00,,,0.01,meteohub,2013-05-12 16:27:00,
2013-05-12 12:32:00,62.1,56.1,29.68,WSW,252,8.0,17.0,77,0.00,,,0.01,meteohub,2013-05-12 16:32:00,
2013-05-12 12:37:00,62.6,56.1,29.68,SW,235,20.0,20.0,77,0.00,,,0.01,meteohub,2013-05-12 16:37:00,
2013-05-12 12:42:00,62.2,56.1,29.68,WSW,238,15.0,20.0,74,0.00,,,0.01,meteohub,2013-05-12 16:42:00,
2013-05-12 12:47:00,62.1,56.3,29.68,West,280,12.0,20.0,75,0.00,,,0.01,meteohub,2013-05-12 16:47:00,
2013-05-12 12:52:00,62.6,56.3,29.67,WSW,245,8.0,20.0,73,0.00,,,0.01,meteohub,2013-05-12 16:52:00,
2013-05-12 12:57:00,62.8,56.3,29.67,WSW,254,13.0,20.0,73,0.00,,,0.01,meteohub,2013-05-12 16:57:00,
2013-05-12 13:02:00,62.4,56.5,29.67,WSW,250,10.0,20.0,73,0.00,,,0.01,meteohub,2013-05-12 17:02:00,
2013-05-12 13:07:00,62.8,56.5,29.67,West,260,12.0,19.0,72,0.00,,,0.01,meteohub,2013-05-12 17:07:00,
2013-05-12 13:12:00,63.3,56.5,29.67,WSW,257,9.0,20.0,70,0.00,,,0.01,meteohub,2013-05-12 17:12:00,
2013-05-12 13:17:00,64.2,56.7,29.67,WSW,246,7.0,20.0,69,0.00,,,0.01,meteohub,2013-05-12 17:17:00,
2013-05-12 13:22:00,64.0,56.7,29.67,SW,225,13.0,20.0,68,0.00,,,0.01,meteohub,2013-05-12 17:22:00,
2013-05-12 13:27:00,64.0,56.7,29.67,West,270,15.0,17.0,68,0.00,,,0.01,meteohub,2013-05-12 17:27:00,
2013-05-12 13:32:00,64.0,56.8,29.67,West,269,11.0,22.0,70,0.00,,,0.01,meteohub,2013-05-12 17:32:00,
2013-05-12 13:37:00,64.0,56.3,29.66,WSW,242,8.0,22.0,69,0.00,,,0.01,meteohub,2013-05-12 17:37:00,
2013-05-12 13:42:00,64.0,56.3,29.66,West,273,12.0,22.0,69,0.00,,,0.01,meteohub,2013-05-12 17:42:00,
2013-05-12 13:47:00,64.8,56.3,29.66,West,259,7.0,20.0,69,0.00,,,0.01,meteohub,2013-05-12 17:47:00,
2013-05-12 13:52:00,65.1,56.5,29.66,WNW,283,17.0,19.0,67,0.00,,,0.01,meteohub,2013-05-12 17:52:00,
2013-05-12 13:57:00,63.9,56.5,29.66,West,280,16.0,20.0,69,0.00,,,0.01,meteohub,2013-05-12 17:57:00,
2013-05-12 14:02:00,64.2,56.5,29.66,WSW,252,12.0,20.0,68,0.00,,,0.01,meteohub,2013-05-12 18:02:00,
2013-05-12 14:07:00,64.6,56.7,29.66,SW,235,13.0,20.0,66,0.00,,,0.01,meteohub,2013-05-12 18:07:00,
2013-05-12 14:12:00,64.9,56.7,29.66,West,267,10.0,22.0,65,0.00,,,0.01,meteohub,2013-05-12 18:12:00,
2013-05-12 14:17:00,65.7,56.7,29.66,West,269,13.0,22.0,63,0.00,,,0.01,meteohub,2013-05-12 18:17:00,
2013-05-12 14:22:00,65.3,56.8,29.66,West,263,12.0,22.0,61,0.00,,,0.01,meteohub,2013-05-12 18:22:00,
2013-05-12 14:27:00,65.5,56.8,29.66,WSW,257,17.0,22.0,61,0.00,,,0.01,meteohub,2013-05-12 18:27:00,
2013-05-12 14:32:00,66.2,57.0,29.66,WSW,247,9.0,23.0,61,0.00,,,0.01,meteohub,2013-05-12 18:32:00,
2013-05-12 14:37:00,66.7,57.0,29.66,West,278,13.0,24.0,57,0.00,,,0.01,meteohub,2013-05-12 18:37:00,
2013-05-12 14:42:00,66.6,57.2,29.65,SW,228,14.0,25.0,59,0.00,,,0.01,meteohub,2013-05-12 18:42:00,
2013-05-12 14:47:00,66.6,57.2,29.65,SW,229,12.0,25.0,54,0.00,,,0.01,meteohub,2013-05-12 18:47:00,
2013-05-12 14:52:00,66.6,57.4,29.65,West,275,17.0,23.0,54,0.00,,,0.01,meteohub,2013-05-12 18:52:00,
2013-05-12 14:57:00,66.4,57.4,29.65,West,264,7.0,26.0,53,0.00,,,0.01,meteohub,2013-05-12 18:57:00,
2013-05-12 15:02:00,67.3,57.6,29.65,West,261,17.0,26.0,50,0.00,,,0.01,meteohub,2013-05-12 19:02:00,
2013-05-12 15:07:00,67.5,57.7,29.65,West,273,15.0,23.0,48,0.00,,,0.01,meteohub,2013-05-12 19:07:00,
2013-05-12 15:12:00,66.9,57.7,29.65,WSW,252,15.0,23.0,46,0.00,,,0.01,meteohub,2013-05-12 19:12:00,
2013-05-12 15:17:00,67.5,57.2,29.65,West,264,15.0,24.0,47,0.00,,,0.01,meteohub,2013-05-12 19:17:00,
2013-05-12 15:22:00,67.3,57.2,29.65,West,267,8.0,24.0,46,0.00,,,0.01,meteohub,2013-05-12 19:22:00,
2013-05-12 15:27:00,67.5,57.2,29.65,West,264,19.0,22.0,45,0.00,,,0.01,meteohub,2013-05-12 19:27:00,
2013-05-12 15:32:00,67.5,57.6,29.65,West,264,9.0,22.0,45,0.00,,,0.01,meteohub,2013-05-12 19:32:00,
2013-05-12 15:37:00,66.9,57.0,29.65,West,262,16.0,22.0,46,0.00,,,0.01,meteohub,2013-05-12 19:37:00,
2013-05-12 15:42:00,66.9,57.0,29.65,West,281,15.0,23.0,45,0.00,,,0.01,meteohub,2013-05-12 19:42:00,
2013-05-12 15:47:00,67.1,57.2,29.65,WSW,250,17.0,23.0,45,0.00,,,0.01,meteohub,2013-05-12 19:47:00,
2013-05-12 15:52:00,66.9,57.2,29.65,West,264,20.0,23.0,45,0.00,,,0.01,meteohub,2013-05-12 19:52:00,
2013-05-12 15:57:00,66.9,57.9,29.65,SW,234,18.0,23.0,45,0.00,,,0.01,meteohub,2013-05-12 19:57:00,
2013-05-12 16:02:00,66.7,57.9,29.65,West,259,19.0,22.0,47,0.00,,,0.01,meteohub,2013-05-12 20:02:00,
2013-05-12 16:07:00,67.3,57.9,29.64,WNW,282,10.0,22.0,45,0.00,,,0.01,meteohub,2013-05-12 20:07:00,
2013-05-12 16:12:00,66.9,57.9,29.64,WNW,282,14.0,22.0,45,0.00,,,0.01,meteohub,2013-05-12 20:12:00,
2013-05-12 16:17:00,66.0,57.4,29.64,West,272,14.0,26.0,44,0.00,,,0.01,meteohub,2013-05-12 20:17:00,
2013-05-12 16:22:00,65.8,57.4,29.65,West,265,19.0,26.0,43,0.00,,,0.01,meteohub,2013-05-12 20:22:00,
2013-05-12 16:27:00,66.0,57.6,29.65,West,267,13.0,26.0,43,0.00,,,0.01,meteohub,2013-05-12 20:27:00,
2013-05-12 16:32:00,66.6,57.0,29.65,WSW,257,20.0,24.0,43,0.00,,,0.01,meteohub,2013-05-12 20:32:00,
2013-05-12 16:37:00,65.8,56.7,29.65,West,275,22.0,24.0,42,0.00,,,0.01,meteohub,2013-05-12 20:37:00,
2013-05-12 16:42:00,65.5,56.7,29.65,West,262,20.0,28.0,43,0.00,,,0.01,meteohub,2013-05-12 20:42:00,
2013-05-12 16:47:00,65.7,56.8,29.65,WSW,257,17.0,28.0,41,0.00,,,0.01,meteohub,2013-05-12 20:47:00,
2013-05-12 16:52:00,64.9,57.4,29.65,West,280,22.0,28.0,42,0.00,,,0.01,meteohub,2013-05-12 20:52:00,
2013-05-12 16:57:00,64.8,57.4,29.65,West,265,9.0,28.0,43,0.00,,,0.01,meteohub,2013-05-12 20:57:00,
2013-05-12 17:02:00,64.9,57.4,29.65,WSW,257,20.0,29.0,42,0.00,,,0.01,meteohub,2013-05-12 21:02:00,
2013-05-12 17:07:00,65.1,57.4,29.65,WSW,250,10.0,29.0,41,0.00,,,0.01,meteohub,2013-05-12 21:07:00,
2013-05-12 17:12:00,65.1,56.8,29.65,West,261,18.0,29.0,41,0.00,,,0.01,meteohub,2013-05-12 21:12:00,
2013-05-12 17:17:00,64.2,56.8,29.65,West,271,23.0,28.0,44,0.00,,,0.01,meteohub,2013-05-12 21:17:00,
2013-05-12 17:22:00,63.7,56.5,29.66,West,277,12.0,24.0,45,0.00,,,0.01,meteohub,2013-05-12 21:22:00,
2013-05-12 17:27:00,63.0,56.5,29.66,West,273,11.0,25.0,50,0.00,,,0.01,meteohub,2013-05-12 21:27:00,
2013-05-12 17:32:00,62.2,56.5,29.66,West,269,17.0,25.0,51,0.00,,,0.01,meteohub,2013-05-12 21:32:00,
2013-05-12 17:37:00,63.0,56.5,29.66,WNW,284,14.0,25.0,48,0.00,,,0.01,meteohub,2013-05-12 21:37:00,
2013-05-12 17:42:00,62.8,56.5,29.67,West,281,19.0,23.0,48,0.00,,,0.01,meteohub,2013-05-12 21:42:00,
2013-05-12 17:47:00,63.1,56.5,29.67,WSW,254,12.0,23.0,47,0.00,,,0.01,meteohub,2013-05-12 21:47:00,
2013-05-12 17:52:00,62.8,56.5,29.67,West,273,11.0,23.0,48,0.00,,,0.01,meteohub,2013-05-12 21:52:00,
2013-05-12 17:57:00,62.1,55.9,29.67,West,268,9.0,20.0,50,0.00,,,0.01,meteohub,2013-05-12 21:57:00,
2013-05-12 18:02:00,61.9,55.9,29.68,WNW,290,15.0,20.0,50,0.00,,,0.01,meteohub,2013-05-12 22:02:00,
2013-05-12 18:07:00,61.9,55.9,29.68,West,267,14.0,21.0,49,0.00,,,0.01,meteohub,2013-05-12 22:07:00,
2013-05-12 18:12:00,62.2,55.9,29.68,WSW,251,14.0,21.0,47,0.00,,,0.01,meteohub,2013-05-12 22:12:00,
2013-05-12 18:17:00,63.0,55.9,29.68,West,269,20.0,21.0,44,0.00,,,0.01,meteohub,2013-05-12 22:17:00,
2013-05-12 18:22:00,63.0,55.9,29.68,West,270,16.0,22.0,44,0.00,,,0.01,meteohub,2013-05-12 22:22:00,
2013-05-12 18:26:00,62.4,55.9,29.68,West,261,9.0,22.0,48,0.00,,,0.01,meteohub,2013-05-12 22:26:00,
2013-05-12 18:31:00,62.2,56.1,29.69,West,261,14.0,22.0,51,0.00,,,0.01,meteohub,2013-05-12 22:31:00,
2013-05-12 18:36:00,61.7,56.1,29.69,WSW,256,15.0,21.0,54,0.00,,,0.01,meteohub,2013-05-12 22:36:00,
2013-05-12 18:41:00,61.9,56.1,29.69,West,267,15.0,21.0,54,0.00,,,0.01,meteohub,2013-05-12 22:41:00,
2013-05-12 18:47:00,61.9,56.1,29.69,West,274,12.0,22.0,54,0.00,,,0.01,meteohub,2013-05-12 22:47:00,
2013-05-12 18:52:00,61.9,56.1,29.70,West,277,13.0,22.0,54,0.00,,,0.01,meteohub,2013-05-12 22:52:00,
2013-05-12 18:57:00,61.3,56.1,29.70,West,273,12.0,21.0,53,0.00,,,0.01,meteohub,2013-05-12 22:57:00,
2013-05-12 19:02:00,61.9,55.9,29.70,WNW,284,10.0,20.0,48,0.00,,,0.01,meteohub,2013-05-12 23:02:00,
2013-05-12 19:06:00,62.1,55.9,29.70,WNW,288,15.0,20.0,44,0.00,,,0.01,meteohub,2013-05-12 23:06:00,
2013-05-12 19:11:00,61.9,55.9,29.71,West,270,18.0,19.0,44,0.00,,,0.01,meteohub,2013-05-12 23:11:00,
2013-05-12 19:16:00,61.2,55.9,29.71,WNW,286,11.0,22.0,48,0.00,,,0.01,meteohub,2013-05-12 23:16:00,
2013-05-12 19:21:00,60.1,55.9,29.72,WNW,290,8.0,22.0,53,0.00,,,0.01,meteohub,2013-05-12 23:21:00,
2013-05-12 19:26:00,58.8,55.9,29.72,WSW,255,9.0,22.0,57,0.00,,,0.01,meteohub,2013-05-12 23:26:00,
2013-05-12 19:31:00,58.8,55.8,29.72,West,281,11.0,18.0,55,0.00,,,0.01,meteohub,2013-05-12 23:31:00,
2013-05-12 19:36:00,58.6,55.8,29.72,NW,317,8.0,19.0,54,0.00,,,0.01,meteohub,2013-05-12 23:36:00,
2013-05-12 19:41:00,58.6,55.8,29.73,West,280,7.0,19.0,53,0.00,,,0.01,meteohub,2013-05-12 23:41:00,
2013-05-12 19:46:00,58.3,55.6,29.73,West,279,9.0,19.0,51,0.00,,,0.01,meteohub,2013-05-12 23:46:00,
2013-05-12 19:52:00,59.4,55.6,29.73,WNW,302,11.0,17.0,42,0.00,,,0.01,meteohub,2013-05-12 23:52:00,
2013-05-12 19:57:00,59.5,55.2,29.73,West,269,11.0,21.0,44,0.00,,,0.01,meteohub,2013-05-12 23:57:00,
2013-05-12 20:02:00,58.8,55.2,29.74,WNW,290,10.0,21.0,46,0.00,,,0.01,meteohub,2013-05-13 00:02:00,
2013-05-12 20:07:00,58.6,55.2,29.74,WNW,288,11.0,21.0,48,0.00,,,0.01,meteohub,2013-05-13 00:07:00,
2013-05-12 20:12:00,58.8,55.2,29.74,WNW,292,13.0,18.0,44,0.00,,,0.01,meteohub,2013-05-13 00:12:00,
2013-05-12 20:17:00,58.6,55.2,29.75,WNW,286,11.0,19.0,47,0.00,,,0.01,meteohub,2013-05-13 00:17:00,
2013-05-12 20:22:00,58.5,55.0,29.75,WNW,290,14.0,19.0,46,0.00,,,0.01,meteohub,2013-05-13 00:22:00,
2013-05-12 20:27:00,58.6,54.9,29.75,WNW,283,13.0,19.0,43,0.00,,,0.01,meteohub,2013-05-13 00:27:00,
2013-05-12 20:32:00,59.2,54.9,29.75,NW,306,7.0,22.0,41,0.00,,,0.01,meteohub,2013-05-13 00:32:00,
2013-05-12 20:37:00,58.6,54.7,29.76,WNW,293,13.0,22.0,44,0.00,,,0.01,meteohub,2013-05-13 00:37:00,
2013-05-12 20:42:00,58.3,54.7,29.77,WNW,295,12.0,22.0,46,0.00,,,0.01,meteohub,2013-05-13 00:42:00,
2013-05-12 20:47:00,57.7,54.5,29.77,WNW,291,9.0,21.0,49,0.00,,,0.01,meteohub,2013-05-13 00:47:00,
2013-05-12 20:52:00,57.4,54.5,29.77,WNW,300,10.0,20.0,50,0.00,,,0.01,meteohub,2013-05-13 00:52:00,
2013-05-12 20:57:00,57.0,54.5,29.77,WNW,283,10.0,21.0,50,0.00,,,0.01,meteohub,2013-05-13 00:57:00,
2013-05-12 21:02:00,57.0,53.8,29.77,WNW,292,9.0,21.0,48,0.00,,,0.01,meteohub,2013-05-13 01:02:00,
2013-05-12 21:07:00,57.6,53.8,29.78,WNW,288,12.0,21.0,44,0.00,,,0.01,meteohub,2013-05-13 01:07:00,
2013-05-12 21:12:00,57.7,53.6,29.78,WNW,301,12.0,21.0,43,0.00,,,0.01,meteohub,2013-05-13 01:12:00,
2013-05-12 21:17:00,57.6,53.4,29.78,WNW,290,8.0,21.0,45,0.00,,,0.01,meteohub,2013-05-13 01:17:00,
2013-05-12 21:22:00,57.2,53.4,29.79,WNW,292,9.0,21.0,46,0.00,,,0.01,meteohub,2013-05-13 01:22:00,
2013-05-12 21:27:00,57.0,53.2,29.79,West,276,11.0,18.0,46,0.00,,,0.01,meteohub,2013-05-13 01:27:00,
2013-05-12 21:32:00,56.8,53.2,29.79,WNW,298,9.0,18.0,47,0.00,,,0.01,meteohub,2013-05-13 01:32:00,
2013-05-12 21:37:00,56.8,53.1,29.80,WNW,298,9.0,18.0,46,0.00,,,0.01,meteohub,2013-05-13 01:37:00,
2013-05-12 21:42:00,56.7,53.1,29.80,WNW,289,9.0,16.0,45,0.00,,,0.01,meteohub,2013-05-13 01:42:00,
2013-05-12 21:47:00,56.7,52.3,29.81,West,281,12.0,14.0,46,0.00,,,0.01,meteohub,2013-05-13 01:47:00,
2013-05-12 21:52:00,56.5,52.3,29.81,WNW,288,8.0,14.0,46,0.00,,,0.01,meteohub,2013-05-13 01:52:00,
2013-05-12 21:57:00,56.1,52.2,29.81,NW,304,8.0,14.0,50,0.00,,,0.01,meteohub,2013-05-13 01:57:00,
2013-05-12 22:02:00,55.8,52.2,29.81,WNW,291,6.0,14.0,51,0.00,,,0.01,meteohub,2013-05-13 02:02:00,
2013-05-12 22:07:00,55.8,52.2,29.82,WNW,293,9.0,12.0,49,0.00,,,0.01,meteohub,2013-05-13 02:07:00,
2013-05-12 22:12:00,56.1,52.0,29.82,WNW,290,6.0,14.0,46,0.00,,,0.01,meteohub,2013-05-13 02:12:00,
2013-05-12 22:17:00,56.1,52.0,29.82,West,277,8.0,14.0,46,0.00,,,0.01,meteohub,2013-05-13 02:17:00,
2013-05-12 22:22:00,55.8,51.8,29.83,WNW,290,10.0,14.0,49,0.00,,,0.01,meteohub,2013-05-13 02:22:00,
2013-05-12 22:27:00,55.6,51.8,29.83,West,280,8.0,14.0,50,0.00,,,0.01,meteohub,2013-05-13 02:27:00,
2013-05-12 22:32:00,55.4,51.8,29.83,West,265,9.0,14.0,50,0.00,,,0.01,meteohub,2013-05-13 02:32:00,
2013-05-12 22:37:00,55.6,51.8,29.83,West,269,8.0,14.0,50,0.00,,,0.01,meteohub,2013-05-13 02:37:00,
2013-05-12 22:42:00,55.4,51.6,29.84,West,279,8.0,14.0,51,0.00,,,0.01,meteohub,2013-05-13 02:42:00,
2013-05-12 22:47:00,55.2,51.1,29.85,WNW,292,10.0,14.0,51,0.00,,,0.01,meteohub,2013-05-13 02:47:00,
2013-05-12 22:51:00,55.0,50.9,29.85,WNW,290,9.0,14.0,54,0.00,,,0.01,meteohub,2013-05-13 02:51:00,
2013-05-12 22:57:00,54.9,50.7,29.85,WNW,294,9.0,15.0,56,0.00,,,0.01,meteohub,2013-05-13 02:57:00,
2013-05-12 23:01:00,54.7,50.7,29.86,WNW,286,11.0,16.0,57,0.00,,,0.01,meteohub,2013-05-13 03:01:00,
2013-05-12 23:06:00,55.0,50.5,29.86,WNW,303,11.0,21.0,48,0.00,,,0.01,meteohub,2013-05-13 03:06:00,
2013-05-12 23:11:00,55.2,50.5,29.86,West,279,14.0,22.0,46,0.00,,,0.01,meteohub,2013-05-13 03:11:00,
2013-05-12 23:16:00,55.0,50.4,29.86,WNW,282,10.0,22.0,51,0.00,,,0.01,meteohub,2013-05-13 03:16:00,
2013-05-12 23:21:00,54.7,50.2,29.86,WNW,302,11.0,20.0,53,0.00,,,0.01,meteohub,2013-05-13 03:21:00,
2013-05-12 23:26:00,54.7,50.2,29.87,WNW,288,16.0,20.0,50,0.00,,,0.01,meteohub,2013-05-13 03:26:00,
2013-05-12 23:31:00,54.7,50.0,29.87,West,275,12.0,20.0,52,0.00,,,0.01,meteohub,2013-05-13 03:31:00,
2013-05-12 23:36:00,54.3,49.5,29.87,WNW,303,13.0,20.0,51,0.00,,,0.01,meteohub,2013-05-13 03:36:00,
2013-05-12 23:42:00,54.3,49.3,29.87,West,269,14.0,17.0,49,0.00,,,0.01,meteohub,2013-05-13 03:42:00,
2013-05-12 23:46:00,54.5,49.3,29.88,WNW,286,12.0,22.0,49,0.00,,,0.01,meteohub,2013-05-13 03:46:00,
2013-05-12 23:51:00,54.1,49.3,29.88,WNW,285,12.0,22.0,52,0.00,,,0.01,meteohub,2013-05-13 03:51:00,
2013-05-12 23:56:00,54.0,49.1,29.88,West,273,8.0,22.0,53,0.00,,,0.01,meteohub,2013-05-13 03:56:00,